Terminal Aerodrome Forecast
Issued by NWS Wilmington, OH

Current Version | Previous Version | Text Only | Print | Product List | Glossary Off
Versions: 1 2 3 4 5 6 7 8 9 10 11 12 13 14 15 16 17 18 19 20 21 22 23 24 25

055
FTUS41 KILN 101742
TAFCVG
TAF
KCVG 101742Z 1018/1124 26007KT P6SM BKN025
     FM102100 24007KT P6SM SCT025 BKN100
     FM110000 14004KT P6SM BKN080
     FM111500 17012KT P6SM OVC050
     FM112000 18012G18KT P6SM -RA OVC035=

USA.gov is the U.S. government's official web portal to all federal, state and local government web resources and services.